Location: Roanoke
(37.2710°N, 79.9420°W)
Time: 14:17:54
(UTC-04:00)

Daily predictions for brighter satellites

Satellite Brightness Start Highest point End
(mag) Time Altitude Azimuth Time Altitude Azimuth Time Altitude Azimuth
ATLAS 2A CENTAUR R/B 4.5 20:47:19 10° WSW 20:54:44 53° SSE 21:23:48 10° E
OAO 3 Rocket 3.9 21:13:35 10° W 21:17:55 39° SSW 21:22:17 10° SE
Cosmos 1707 3.3 21:15:31 10° SSW 21:19:21 62° W 21:23:14 10° N
Cosmos 1954 Rocket 4.2 21:14:57 10° S 21:19:56 49° ESE 21:24:56 10° NNE
Cosmos 1727 Rocket 4.4 21:14:24 10° SSE 21:20:18 44° E 21:26:16 10° NNE
Cosmos 2333 Rocket 2.2 21:16:42 10° NNW 21:22:24 75° ENE 21:28:01 10° SSE
H-2A R/B 4.1 21:23:55 10° E 21:26:31 14° ENE 21:29:08 10° NNE
Cosmos 1842 Rocket 3.9 21:23:18 10° N 21:27:34 47° E 21:31:45 10° SSE
Cosmos 2219 Rocket 2.4 21:22:47 10° NNW 21:28:28 79° WSW 21:34:06 10° SSE
Milstar 3 Cent rocket 3.8 21:22:45 10° WSW 21:29:16 49° S 21:42:21 10° ESE
Cosmos 1939 Rocket 2.9 21:30:53 10° SSE 21:34:50 89° WSW 21:38:53 10° NNW
Helios 1A 3.0 21:33:34 10° SSE 21:37:43 85° WSW 21:41:53 10° NNW
Cosmos 614 Rocket 4.2 21:33:35 10° S 21:38:34 48° ESE 21:43:34 10° NNE
Cosmos 2098 Rocket 4.5 21:32:08 10° N 21:39:37 82° E 21:47:06 10° S
USA 234 3.2 21:36:09 10° NE 21:42:40 67° SE 21:49:09 10° SW
ERS-1 Rocket 3.3 21:41:39 12° SE 21:46:07 51° ENE 21:51:00 10° N
Helios 1B rocket 2.9 21:42:59 10° N 21:47:06 63° WNW 21:51:11 10° SSW
Cosmos 2082 3.8 21:42:53 10° SSW 21:48:30 82° WNW 21:54:10 10° NNE
USA 186 4.2 21:50:17 10° WSW 21:51:14 12° W 21:52:11 10° WNW
SAR-Lupe-4 3.7 21:48:27 10° S 21:52:00 76° WSW 21:55:35 10° NNW
SPOT 5 3.8 21:51:10 16° ESE 21:54:17 32° ENE 21:58:38 10° N
Cosmos 1340 Rocket 2.8 21:50:44 10° S 21:54:40 68° E 21:58:42 10° NNE
SL-8 R/B 3.7 21:50:16 10° NW 21:55:03 88° NNE 21:58:31 19° SE
Tiangong 1 0.8 21:52:43 10° WSW 21:55:30 80° NNW 21:58:17 10° ENE
Cosmos 2297 Rocket 2.4 21:51:32 10° SSW 21:57:10 74° WNW 22:02:50 10° NNE
Lacrosse 5 4.3 21:55:14 10° N 21:57:45 14° NNE 22:00:16 10° NE
SEDSat Delta rocket 4.0 21:55:09 10° WSW 21:58:47 27° SSW 22:00:39 19° SSE
Okean 3 Rocket 3.8 21:57:05 12° S 22:01:09 55° E 22:05:32 10° NNE
Lacrosse 4 Rocket 3.0 21:59:25 10° SW 22:03:20 38° WNW 22:07:23 10° N
NOSS 3-4 (A) 3.9 21:59:35 10° NNW 22:06:43 78° ENE 22:12:21 20° SE
NOSS 3-4 (C) 3.9 21:59:41 10° NNW 22:06:49 77° ENE 22:12:26 20° SE
Cosmos 1184 Rocket 3.3 22:04:40 10° SSW 22:07:58 63° W 22:11:19 10° N
Cosmos 1076 Rocket 3.9 22:05:21 19° SSE 22:08:08 45° E 22:12:18 10° NNE
Atlas Centaur 2 2.0 22:09:10 10° WSW 22:12:14 27° S 22:12:48 26° SSE
YAOGAN 11 4.5 22:10:42 23° SE 22:13:10 50° ENE 22:17:33 10° N
CZ-3B R/B 3.5 22:12:27 10° SW 22:15:07 77° SE 22:23:18 10° NE
Cosmos 1980 4.4 22:11:01 10° NNW 22:16:31 50° WSW 22:21:17 13° S
Aureole 2 Rocket 4.1 22:13:07 10° NW 22:16:52 35° WSW 22:19:57 13° SSW
Cosmos 2221 2.5 22:15:08 10° N 22:19:33 76° E 22:22:02 25° SSE
SPOT 1/Viking Rocket 4.1 22:18:02 24° SE 22:20:41 44° ENE 22:25:33 10° N
MetOp-B 4.1 22:17:49 20° SSE 22:21:35 86° ENE 22:26:58 10° NNW
Cosmos 1242 Rocket 3.0 22:19:03 10° N 22:22:38 45° ENE 22:23:41 35° ESE
USA 245 3.0 22:22:16 41° ESE 22:23:00 54° ENE 22:26:31 10° N
ATLAS 5 CENTAUR R/B 1.7 22:20:50 10° SSW 22:25:25 90° SSE 22:30:24 10° NNE
Cosmos 1356 Rocket 3.4 22:23:49 24° S 22:26:13 68° E 22:30:28 10° NNE
Cosmos 1766 Rocket 3.8 22:25:02 31° SSE 22:26:43 48° E 22:30:53 10° NNE
Cosmos 2237 Rocket 3.1 22:22:09 10° NW 22:27:26 43° WSW 22:31:49 15° S
Cosmos 2061 Rocket 4.1 22:21:13 10° N 22:27:32 62° E 22:31:18 25° SSE
Cosmos 2100 Rocket 4.0 22:26:36 10° N 22:32:56 82° E 22:37:02 24° S
Cosmos 1570 Rocket 4.0 22:28:07 10° NNW 22:33:25 70° ENE 22:35:54 32° SSE
Cosmos 1867 3.5 22:32:27 10° SSW 22:37:52 78° ESE 22:43:19 10° NNE
Cosmos 1459 Rocket 3.9 22:32:23 10° N 22:38:43 84° E 22:42:28 26° S
Cosmos 1000 Rocket 4.5 22:34:37 15° S 22:39:58 90° ENE 22:46:18 10° N
Cosmos 1726 3.0 22:36:46 10° NNE 22:40:08 32° ENE 22:40:16 32° E
Cosmos 2227 Rocket 4.4 22:35:50 10° WSW 22:40:29 26° WNW 22:45:09 10° N
Cosmos 1908 3.2 22:38:40 10° N 22:42:34 76° W 22:43:51 40° S
Cosmos 2123 Rocket 4.2 22:40:15 30° SSE 22:43:05 52° E 22:49:03 10° NNE
Cosmos 1743 Rocket 4.4 22:43:18 32° E 22:43:32 32° E 22:47:23 10° NNE
H-2A R/B 3.4 22:43:40 23° E 22:44:27 25° ENE 22:47:56 10° NNE
Cosmos 1674 3.5 22:46:51 21° SSW 22:49:03 48° W 22:52:44 10° N
Cosmos 2173 Rocket 4.0 22:43:15 10° N 22:49:25 81° W 22:53:02 27° S
SL-16 R/B 2.3 22:43:51 10° NNW 22:49:30 72° WSW 22:52:09 32° S
Terra 2.6 22:48:44 33° ESE 22:49:54 38° ENE 22:54:18 10° N
KORONAS-FOTON 3.9 22:51:33 39° SSW 22:52:50 71° W 22:56:38 10° N
Cosmos 1151 Rocket 4.3 22:55:24 10° NNE 22:59:05 26° ENE 22:59:11 26° ENE
ARGOS 3.8 22:57:54 25° SSW 23:00:53 51° W 23:06:10 10° NNW
RESURS DK-1 3.4 22:57:45 10° N 23:01:30 31° ENE 23:01:57 31° ENE
Cosmos 1802 Rocket 4.0 22:56:08 10° N 23:02:16 75° W 23:05:24 31° S
Meteor 2-2 Rocket 4.3 22:59:14 10° N 23:04:58 69° E 23:06:51 43° SSE
H-2A R/B 2.2 23:03:07 37° S 23:05:12 73° WSW 23:10:36 10° NNW
Cosmos 1725 Rocket 4.0 23:02:46 10° N 23:09:02 72° E 23:11:11 43° SSE
Cosmos 332 Rocket 4.1 23:06:37 10° N 23:11:25 51° ENE 23:12:11 47° E
SL-08 R/B 4.5 23:07:15 10° N 23:13:37 87° W 23:16:11 39° S
EO 1 Delta rocket 4.1 23:12:24 40° SSW 23:14:01 62° W 23:18:36 10° NNW
Cosmos 468 Rocket 3.9 23:11:17 10° NNW 23:16:25 74° ENE 23:17:22 57° SE
Cosmos 1818 3.8 23:11:31 10° NW 23:16:53 62° WSW 23:18:13 47° S
Cosmos 2227 4.4 23:15:28 20° SSW 23:19:30 71° WNW 23:25:14 10° NNE
IGS 5A 3.3 23:19:32 75° E 23:19:38 76° ENE 23:23:48 10° N
SL-19 R/B 4.1 23:17:17 10° NNE 23:22:36 75° ESE 23:23:55 52° S
OAO 1 Rocket 4.3 23:17:37 10° WSW 23:22:54 63° S 23:23:07 62° SSE
deb Chang Zheng 4 3.5 23:22:58 10° NNE 23:27:15 74° E 23:27:15 74° E
SL-14 R/B 3.6 23:27:47 59° W 23:28:00 60° W 23:31:56 10° N
Cosmos 1328 4.1 23:28:45 59° W 23:28:58 60° W 23:32:59 10° N
Tiangong 1 3.4 23:28:55 10° WNW 23:30:19 21° NW 23:30:19 21° NW
CZ-2C R/B 4.4 23:30:21 10° NE 23:33:02 18° ENE 23:33:02 18° ENE
Cosmos 220 Rocket 4.1 23:38:26 67° W 23:38:44 70° WNW 23:43:09 10° NNE
Lacrosse 5 2.3 23:36:49 10° NNW 23:41:46 53° NE 23:42:31 48° ENE
Cosmos 1500 Rocket 4.0 23:49:23 56° W 23:49:36 56° W 23:54:01 10° N
CZ-4B R/B 3.5 23:49:02 10° NNE 23:54:20 84° WNW 23:54:53 72° SSW
Cosmos 1300 4.3 23:51:26 10° NNW 23:54:28 29° W 23:54:28 29° W
